Atlanta Fulton, GA

12:35 PM EST on November 15, 2019 (GMT -0500)
Fulton County-Brown

Weather History for KFTY - September, 2019

Change the Weather History Date:

Sunday, September 15, 2019

  Actual Average Record
Temperature  
Mean Temperature 80 °F 73 °F  
Max Temperature 92 °F 84 °F 94 °F (2016)
Min Temperature 68 °F 63 °F 52 °F (2015)
Degree Days  
Heating Degree Days 0 0  
Month to date heating degree days 0 0  
Since 1 July heating degree days 0 0  
Cooling Degree Days 15 8  
Month to date cooling degree days 248 152  
Year to date cooling degree days 1964 1589  
Growing Degree Days 30 (Base 50)    
Moisture  
Dew Point 67 °F    
Average Humidity 66    
Maximum Humidity 93    
Minimum Humidity 38    
Precipitation  
Precipitation 0.00 in 0.13 in 1.31 in (1963)
Month to date precipitation 1.61 1.90  
Year to date precipitation 31.90 37.32  
Sea Level Pressure  
Sea Level Pressure 30.10 in    
Wind  
Wind Speed 3 mph (NE)    
Max Wind Speed 13 mph    
Max Gust Speed 20 mph    
Visibility 10 miles    
Events      
T = Trace of Precipitation, MM = Missing Value Source: NWS Daily Summary

Daily Weather History Graph

Daily Weather History Graph

Search for Another Location

Airport or City:

Astronomy

Sep. 15, 2019 Rise Set
Actual Time 7:21 AM EDT 7:44 PM EDT
Civil Twilight 6:56 AM EDT 8:09 PM EDT
Nautical Twilight 6:26 AM EDT 8:39 PM EDT
Astronomical Twilight 5:57 AM EDT 9:08 PM EDT
Moon 8:54 PM EDT 8:29 AM EDT
Length of Visible Light 13h 13m
Length of Day
12h 23m
Full, 98% of the Moon is Illuminated
Sep 15
Full
Sep 21
Last Quarter
Sep 28
New
Oct 5
First Quarter
Oct 13
Full

Hourly Weather History & Observations

Time (EDT) Temp. Heat Index Dew Point Humidity Pressure Visibility Wind Dir Wind Speed Gust Speed Precip Events Conditions
12:53 AM 73.0 °F - 68.0 °F 84% 30.16 in 10.0 mi NNE 5.8 mph - N/A   Clear
1:53 AM 72.0 °F - 68.0 °F 87% 30.15 in 10.0 mi NNE 3.5 mph - N/A   Clear
2:53 AM 72.0 °F - 66.9 °F 84% 30.14 in 10.0 mi Calm Calm - N/A   Clear
3:53 AM 70.0 °F - 66.9 °F 90% 30.13 in 10.0 mi North 4.6 mph - N/A   Clear
4:53 AM 69.1 °F - 66.0 °F 90% 30.12 in 10.0 mi North 3.5 mph - N/A   Clear
5:53 AM 68.0 °F - 66.0 °F 93% 30.13 in 10.0 mi North 3.5 mph - N/A   Clear
6:53 AM 68.0 °F - 66.0 °F 93% 30.14 in 10.0 mi Calm Calm - N/A   Clear
7:53 AM 69.1 °F - 66.9 °F 93% 30.14 in 10.0 mi Calm Calm - N/A   Clear
9:53 AM 75.9 °F - 69.1 °F 79% 30.15 in 10.0 mi NE 4.6 mph - N/A   Clear
10:53 AM 80.1 °F 82.9 °F 69.1 °F 69% 30.15 in 10.0 mi Variable 3.5 mph - N/A   Clear
11:53 AM 82.9 °F 85.8 °F 68.0 °F 60% 30.14 in 10.0 mi East 6.9 mph - N/A   Partly Cloudy
12:53 PM 86.0 °F 89.4 °F 68.0 °F 55% 30.13 in 10.0 mi ENE 8.1 mph - N/A   Mostly Cloudy
1:53 PM 87.1 °F 91.3 °F 69.1 °F 55% 30.11 in 10.0 mi North 5.8 mph - N/A   Mostly Cloudy
2:53 PM 88.0 °F 91.4 °F 68.0 °F 51% 30.08 in 10.0 mi NNE 6.9 mph - N/A   Partly Cloudy
3:53 PM 91.0 °F 93.8 °F 66.0 °F 44% 30.04 in 10.0 mi East 6.9 mph - N/A   Clear
4:53 PM 91.9 °F 95.4 °F 66.9 °F 44% 30.03 in 10.0 mi Variable 5.8 mph - N/A   Partly Cloudy
5:53 PM 91.0 °F 91.9 °F 63.0 °F 39% 30.02 in 10.0 mi NNE 8.1 mph - N/A   Clear
6:53 PM 89.1 °F 90.3 °F 64.0 °F 43% 30.03 in 10.0 mi ENE 5.8 mph - N/A   Clear
7:53 PM 87.1 °F 89.2 °F 66.0 °F 49% 30.03 in 10.0 mi ESE 3.5 mph - N/A   Clear
8:53 PM 79.0 °F - 69.1 °F 72% 30.04 in 10.0 mi Calm Calm - N/A   Clear
9:53 PM 78.1 °F - 69.1 °F 74% 30.06 in 10.0 mi Calm Calm - N/A   Clear
10:53 PM 77.0 °F - 69.1 °F 76% 30.06 in 10.0 mi Calm Calm - N/A   Clear
11:53 PM 73.0 °F - 69.1 °F 87% 30.06 in 10.0 mi Calm Calm - N/A   Clear